www.pogodaiklimat.ru
ПОГОДА в Ван Найс
Время
и дата
04:51 15.07
05:51 15.07
06:51 15.07
07:51 15.07
08:51 15.07
09:51 15.07
10:51 15.07
11:51 15.07
12:51 15.07
13:51 15.07
14:51 15.07
15:51 15.07
16:51 15.07
17:51 15.07
18:51 15.07
19:51 15.07
20:51 15.07
21:51 15.07
22:51 15.07
23:51 15.07
00:51 16.07
01:51 16.07
02:51 16.07
03:51 16.07
04:51 16.07
05:51 16.07
06:51 16.07
07:51 16.07
08:51 16.07
09:51 16.07
10:51 16.07
11:51 16.07
12:51 16.07
13:51 16.07
14:51 16.07
15:51 16.07
16:51 16.07
17:51 16.07
18:51 16.07
19:51 16.07
20:51 16.07
21:51 16.07
22:51 16.07
23:51 16.07
00:51 17.07
01:51 17.07
02:51 17.07
03:51 17.07
Ветер
(напр.,м/с)
Видим. Явления Облачность Т
(С)
Тd
(С)
f
(%)
Тe
(С)
Тes
(С)
Комфортность P
(гПа)
Po
(гПа)
Тmin
(С)
Tmax
(С)
R
(мм)
R24
(мм)
S
(см)
В 2 16 км ясно +18.9 +15.0 78 +21 +21 комфорт 1016.2 988.2
ЮВ 3 16 км ясно +18.9 +15.6 81 +20 +20 1016.5 988.5
В 2 16 км ясно +20.6 +16.1 75 +24 +25 комфорт 1016.9 988.8
нст 2 16 км ясно +22.2 +16.1 68 +26 +30 душно 1017.0 988.8
нст 2 16 км ясно +24.4 +16.1 60 +28 +36 душно 1016.6 988.5
ЮВ 3 16 км ясно +26.7 +16.1 52 +30 +41 душно 1016.3 988.2 +18.9 +26.7
штиль 0 16 км ясно +28.9 +15.6 44 +32 +55 опасность
солнечного
удара
1015.4 987.5
16 км ясно +32.2 +15.6 37 +35 +62 опасность
солнечного
удара
1014.5 986.5
ЮВ 3 16 км ясно +33.3 +15.0 33 +35 +53 опасность
солнечного
удара
1013.5 985.5
ЮВ 4 16 км ясно +32.8 +15.6 36 +35 +49 душно 1012.8 984.9
ЮВ 4 16 км ясно +33.3 +15.6 35 +36 +47 очень
душно
1011.8 983.9
ЮВ 6 16 км ясно +30.6 +15.6 40 +33 +38 душно 1011.6 983.6 +26.7 +33.9
В 4 16 км ясно +29.4 +15.6 43 +32 +37 душно 1011.7 983.6
ЮВ 4 16 км ясно +27.2 +15.0 47 +30 +32 душно 1011.9 983.9
В 2 16 км ясно +25.6 +15.0 52 +28 +29 жарко 1012.1 983.9
ЮВ 3 16 км ясно +23.9 +15.0 57 +27 +27 жарко 1012.7 984.6
ЮВ 4 16 км ясно +22.2 +14.4 61 +25 +25 комфорт 1013.6 985.5
В 3 16 км ясно +21.1 +13.9 63 +24 +24 комфорт 1014.2 986.2 +21.1 +31.1
СВ 2 16 км ясно +20.6 +13.9 65 +24 +24 комфорт 1014.4 986.2
ЮВ 2 16 км ясно +20.0 +13.9 68 +23 +23 комфорт 1014.0 985.9
ЮВ 2 16 км ясно +19.4 +13.9 70 +21 +21 комфорт 1013.8 985.9
штиль 0 16 км ясно +18.9 +13.9 73 +20 +20 1013.6 985.5
Ю 2 16 км ясно +18.9 +14.4 75 +21 +21 комфорт 1013.5 985.5
ЮВ 2 16 км ясно +18.9 +14.4 75 +21 +21 комфорт 1013.9 985.9 +18.3 +21.1
штиль 0 16 км ясно +18.3 +14.4 78 +19 +19 1014.3 986.2
штиль 0 16 км ясно +19.4 +15.0 76 +21 +21 комфорт 1014.7 986.5
Ю 2 16 км ясно +20.6 +15.0 70 +24 +25 комфорт 1014.9 986.9
ЮВ 4 16 км ясно +22.8 +15.0 61 +27 +29 душно 1015.5 987.2
ЮВ 3 16 км ясно +24.4 +15.6 58 +27 +34 жарко 1015.4 987.2
нст 2 16 км ясно +26.1 +14.4 48 +28 +41 жарко 1015.0 986.9 +18.3 +26.1
ЮВ 3 16 км ясно +28.3 +13.9 41 +30 +45 жарко 1014.8 986.5
нст 2 16 км ясно +30.0 +11.1 31 +30 +51 опасность
солнечного
удара
1014.1 985.9
ЮВ 6
{8}
16 км ясно +31.1 +13.9 35 +33 +41 душно 1013.2 985.2
Ю 4 16 км ясно +30.6 +13.3 35 +32 +45 жарко 1012.9 984.9
ЮВ 5 16 км ясно +30.6 +12.8 34 +32 +40 жарко 1012.4 984.2
ЮВ 6 16 км ясно +29.4 +13.9 39 +31 +36 жарко 1012.0 983.9 +26.1 +32.2
В 4 16 км ясно +30.0 +13.3 36 +31 +36 жарко 1011.6 983.6
В 3 16 км ясно +28.3 +14.4 43 +31 +33 душно 1011.6 983.6
ЮВ 3 16 км ясно +26.1 +13.3 45 +28 +29 жарко 1012.0 983.9
В 3 16 км ясно +24.4 +12.8 48 +26 +26 жарко 1012.3 984.2
В 2 16 км ясно +23.3 +12.8 52 +26 +26 жарко 1012.7 984.6
В 3 16 км ясно +22.8 +12.8 53 +26 +26 жарко 1012.8 984.9 +22.8 +30.0
В 2 16 км ясно +22.2 +12.8 55 +25 +25 комфорт 1012.7 984.9
В 2 16 км ясно +21.7 +13.3 59 +24 +24 комфорт 1012.8 984.9
ЮВ 2 16 км ясно +20.6 +13.3 63 +24 +24 комфорт 1012.6 984.6
В 2 16 км ясно +20.0 +13.9 68 +23 +23 комфорт 1012.8 984.9
В 2 16 км ясно +19.4 +13.9 70 +21 +21 комфорт 1013.0 984.9
В 2 16 км ясно +19.4 +13.9 70 +21 +21 комфорт 1013.3 985.2 +19.4 +22.8
Местоположение метеостанции Van Nuys Airport: широта 34.2125 долгота -118.4908 высота над уровнем моря 243 м.
В архиве по умолчанию представлена погода в Ван Найс за последние 1-2 суток. Обновление информации о фактической погоде в базе происходит ежечасно! Архивные данные за месяц целиком и за предыдущие месяцы Вы можете получить, выбрав интересующий диапазон дат из раскрывающегося списка и нажав кнопку "Ввод!".
Внимание! Архив погоды МЕТАР в базе сайта по станциям, не включенным в климатический монитор, хранится не более 60 дней. Нет смысла пытаться выбрать более раннюю дату.
*Определитесь, кто Вы:
Внимание! Время в таблицах - местное (без учета летнего времени). Для получения всемирного времени необходимо вычесть поправку, которая равна -8 ч.
Смотрите также архив погоды в соседних городах и на ближайших метеорологических станциях:
Партнеры нашего сайта:      
Пояснения к столбцам:
  • Ветер - указаны скорость ветра в м/с - средняя за 10 мин, порывы в срок и между сроками (в фигурных скобках) и направление, откуда дует ветер: С - северный,
  • СВ - северо-восточный, В - восточный, ЮВ - юго-восточный, Ю - южный, ЮЗ - юго-западный, З - западный, СЗ - северо-западный.
  • Видимость - горизонтальная дальность видимости в метрах или километрах. При видимости от 1 до 10 км при отсутствии осадков обычно наблюдается дымка, при ухудшении видимости до 1 км и менее - туман. В сухую погоду видимость может ухудшаться дымом, пылью или мглою.
  • Явления - указаны атмосферные явления, наблюдавшиеся в срок или в последний час перед сроком; фигурными скобками обозначены явления, наблюдавшиеся между сроками (за 1-3 часа до срока); квадратными скобками обозначены град или гололедные отложения с указанием их диаметра в мм.
  • Облачность - указаны через наклонную черту общая и нижняя облачность в баллах и высота нижней границы облаков в метрах; квадратными скобками обозначены формы облаков: Ci - перистые, Cs - перисто-слоистые, Cc - перисто-кучевые, Ac - высококучевые, As - высокослоистые, Sc - слоисто-кучевые, Ns - слоисто-дождевые, Cu - кучевые, Cb - кучево-дождевые. Подробнее классификацию облаков см. в Атласе облаков (PDF).
  • T - Температура воздуха - температура, измеренная на высоте 2 м над землей.
  • Td - Температура точки росы - температура, при понижении до которой содержащийся в воздухе водяной пар достигнет насыщения.
  • f - Относительная влажность воздуха - влажноcть воздуха, измеренная на высоте 2 м над землей.
  • Te - Эффективная температура - температура, которую ощущает одетый по сезону человек в тени. Характеристика душности погоды. При расчете учитывается влияние влажности воздуха и скорости ветра на теплоощущения человека.
  • Tes - Эффективная температура на солнце - температура, которую ощущает человек, с поправкой на солнечный нагрев. Характеристика знойности погоды. Зависит от высоты солнца над горизонтом, облачности и скорости ветра. Ночью, в пасмурную погоду, а также при ветре 12 м/с и более поправка равна нулю.
  • P - Атмосферное давление - приведенное к уровню моря атмосферное давление.
  • Po - Атмосферное давление - измеренное на уровне метеостанции атмосферное давление.
  • Tmin - Минимальная температура - минимум температуры воздуха на высоте 2 м над землей.
  • Tmax - Максимальная температура - максимум температуры воздуха на высоте 2 м над землей.
  • R - Количество осадков - Количество выпавших осадков за период времени, мм. При наведении курсора мыши на число - период времени, за который выпало указанное количество осадков.
  • R24 - Количество осадков - Количество выпавших осадков за 24 часа, мм.
  • S - Снежный покров - Высота снежного покрова, см. При наведении курсора мыши на число - состояние снежного покрова и степень покрытия местности в баллах.